Time,TemperatureF,DewpointF,PressureIn,WindDirection,WindDirectionDegrees,WindSpeedMPH,WindSpeedGustMPH,Humidity,HourlyPrecipIn,Conditions,Clouds,dailyrainin,SoftwareType,DateUTC
2013-04-07 00:02:00,49.9,42.6,30.17,SW,219,0.0,0.0,76,0.00,CLR,,0.00,WeatherDisplay:10.37,2013-04-07 05:02:00,
2013-04-07 00:07:00,49.6,42.7,30.17,SW,219,0.0,0.0,77,0.00,CLR,,0.00,WeatherDisplay:10.37,2013-04-07 05:07:00,
2013-04-07 00:12:00,49.5,42.6,30.17,SW,219,0.0,0.0,77,0.00,CLR,,0.00,WeatherDisplay:10.37,2013-04-07 05:12:00,
2013-04-07 00:17:00,49.4,42.8,30.17,SW,219,0.0,0.0,78,0.00,CLR,,0.00,WeatherDisplay:10.37,2013-04-07 05:17:00,
2013-04-07 00:22:00,49.2,42.6,30.17,SW,219,0.0,0.0,78,0.00,CLR,,0.00,WeatherDisplay:10.37,2013-04-07 05:22:00,
2013-04-07 00:27:00,49.1,42.9,30.17,SW,219,1.1,0.0,79,0.00,CLR,,0.00,WeatherDisplay:10.37,2013-04-07 05:27:00,
2013-04-07 00:32:00,48.9,42.7,30.17,SW,219,0.0,0.0,79,0.00,CLR,,0.00,WeatherDisplay:10.37,2013-04-07 05:32:00,
2013-04-07 00:37:00,48.8,42.6,30.17,SW,219,0.0,0.0,79,0.00,CLR,,0.00,WeatherDisplay:10.37,2013-04-07 05:37:00,
2013-04-07 00:42:00,48.8,42.9,30.17,SW,219,0.0,0.0,80,0.00,CLR,,0.00,WeatherDisplay:10.37,2013-04-07 05:42:00,
2013-04-07 00:47:00,48.6,42.7,30.17,SW,219,0.0,0.0,80,0.00,CLR,,0.00,WeatherDisplay:10.37,2013-04-07 05:47:00,
2013-04-07 00:52:00,48.6,42.7,30.18,SW,219,0.0,0.0,80,0.00,CLR,,0.00,WeatherDisplay:10.37,2013-04-07 05:52:00,
2013-04-07 00:57:00,48.5,42.6,30.17,SW,219,0.0,0.0,80,0.00,CLR,,0.00,WeatherDisplay:10.37,2013-04-07 05:57:00,
2013-04-07 01:02:00,48.3,42.4,30.18,SW,219,0.0,0.0,80,0.00,CLR,,0.00,WeatherDisplay:10.37,2013-04-07 06:02:00,
2013-04-07 01:07:00,48.2,42.6,30.18,SW,219,0.0,0.0,81,0.00,CLR,,0.00,WeatherDisplay:10.37,2013-04-07 06:07:00,
2013-04-07 01:12:00,48.0,42.4,30.18,SW,219,0.0,0.0,81,0.00,CLR,,0.00,WeatherDisplay:10.37,2013-04-07 06:12:00,
2013-04-07 01:17:00,48.0,42.4,30.18,SW,219,0.0,0.0,81,0.00,CLR,,0.00,WeatherDisplay:10.37,2013-04-07 06:17:00,
2013-04-07 01:22:00,48.0,42.8,30.18,SW,219,0.0,0.0,82,0.00,CLR,,0.00,WeatherDisplay:10.37,2013-04-07 06:22:00,
2013-04-07 01:27:00,47.9,42.3,30.18,SW,219,0.0,0.0,81,0.00,CLR,,0.00,WeatherDisplay:10.37,2013-04-07 06:27:00,
2013-04-07 01:32:00,47.7,42.5,30.18,SW,219,0.0,0.0,82,0.00,CLR,,0.00,WeatherDisplay:10.37,2013-04-07 06:32:00,
2013-04-07 01:37:00,47.6,42.4,30.18,SW,219,0.0,0.0,82,0.00,CLR,,0.00,WeatherDisplay:10.37,2013-04-07 06:37:00,
2013-04-07 01:42:00,47.4,42.2,30.17,SW,219,0.0,0.0,82,0.00,CLR,,0.00,WeatherDisplay:10.37,2013-04-07 06:42:00,
2013-04-07 01:48:00,47.3,42.1,30.17,SW,219,0.0,0.0,82,0.00,CLR,,0.00,WeatherDisplay:10.37,2013-04-07 06:48:00,
2013-04-07 01:53:00,47.1,42.2,30.17,SW,219,0.0,0.0,83,0.00,CLR,,0.00,WeatherDisplay:10.37,2013-04-07 06:53:00,
2013-04-07 01:58:00,47.0,42.1,30.17,SW,219,0.0,0.0,83,0.00,CLR,,0.00,WeatherDisplay:10.37,2013-04-07 06:58:00,
2013-04-07 02:03:00,46.8,41.9,30.17,SW,219,0.0,0.0,83,0.00,CLR,,0.00,WeatherDisplay:10.37,2013-04-07 07:03:00,
2013-04-07 02:08:00,46.7,41.8,30.16,SW,219,0.0,0.0,83,0.00,CLR,,0.00,WeatherDisplay:10.37,2013-04-07 07:08:00,
2013-04-07 02:13:00,46.7,41.8,30.17,SW,219,0.0,0.0,83,0.00,CLR,,0.00,WeatherDisplay:10.37,2013-04-07 07:13:00,
2013-04-07 02:18:00,46.5,41.9,30.17,SW,219,0.0,0.0,84,0.00,CLR,,0.00,WeatherDisplay:10.37,2013-04-07 07:18:00,
2013-04-07 02:23:00,46.4,41.8,30.16,SW,219,0.0,0.0,84,0.00,CLR,,0.00,WeatherDisplay:10.37,2013-04-07 07:23:00,
2013-04-07 02:28:00,46.2,41.6,30.16,SW,219,0.0,0.0,84,0.00,CLR,,0.00,WeatherDisplay:10.37,2013-04-07 07:28:00,
2013-04-07 02:33:00,46.2,41.9,30.16,SW,219,0.0,0.0,85,0.00,CLR,,0.00,WeatherDisplay:10.37,2013-04-07 07:33:00,
2013-04-07 02:38:00,46.2,41.9,30.17,SW,219,0.0,0.0,85,0.00,CLR,,0.00,WeatherDisplay:10.37,2013-04-07 07:38:00,
2013-04-07 02:43:00,46.1,41.8,30.17,SW,219,0.0,0.0,85,0.00,CLR,,0.00,WeatherDisplay:10.37,2013-04-07 07:43:00,
2013-04-07 02:48:00,46.1,41.8,30.17,SW,219,1.1,0.0,85,0.00,CLR,,0.00,WeatherDisplay:10.37,2013-04-07 07:48:00,
2013-04-07 02:53:00,46.1,41.8,30.17,SW,219,0.0,0.0,85,0.00,CLR,,0.00,WeatherDisplay:10.37,2013-04-07 07:53:00,
2013-04-07 02:58:00,46.0,42.0,30.17,SW,219,0.0,0.0,86,0.00,CLR,,0.00,WeatherDisplay:10.37,2013-04-07 07:58:00,
2013-04-07 03:03:00,46.0,42.0,30.17,SW,219,0.0,0.0,86,0.00,CLR,,0.00,WeatherDisplay:10.37,2013-04-07 08:03:00,
2013-04-07 03:08:00,45.8,41.9,30.17,SW,219,0.0,0.0,86,0.00,CLR,,0.00,WeatherDisplay:10.37,2013-04-07 08:08:00,
2013-04-07 03:13:00,45.8,41.9,30.17,SW,219,0.0,0.0,86,0.00,CLR,,0.00,WeatherDisplay:10.37,2013-04-07 08:13:00,
2013-04-07 03:18:00,45.8,41.9,30.16,SW,219,0.0,0.0,86,0.00,CLR,,0.00,WeatherDisplay:10.37,2013-04-07 08:18:00,
2013-04-07 03:23:00,45.8,41.9,30.16,SW,219,0.0,0.0,86,0.00,CLR,,0.00,WeatherDisplay:10.37,2013-04-07 08:23:00,
2013-04-07 03:28:00,45.7,41.8,30.17,SW,219,0.0,0.0,86,0.00,CLR,,0.00,WeatherDisplay:10.37,2013-04-07 08:28:00,
2013-04-07 03:33:00,45.7,41.8,30.17,SW,219,0.0,0.0,86,0.00,CLR,,0.00,WeatherDisplay:10.37,2013-04-07 08:33:00,
2013-04-07 03:38:00,45.5,41.9,30.17,SW,219,0.0,0.0,87,0.00,CLR,,0.00,WeatherDisplay:10.37,2013-04-07 08:38:00,
2013-04-07 03:43:00,45.5,41.9,30.17,SW,219,0.0,0.0,87,0.00,CLR,,0.00,WeatherDisplay:10.37,2013-04-07 08:43:00,
2013-04-07 03:48:00,45.4,41.8,30.17,SW,219,0.0,0.0,87,0.00,CLR,,0.00,WeatherDisplay:10.37,2013-04-07 08:48:00,
2013-04-07 03:53:00,45.4,41.8,30.17,SW,219,0.0,0.0,87,0.00,CLR,,0.00,WeatherDisplay:10.37,2013-04-07 08:53:00,
2013-04-07 03:58:00,45.2,41.6,30.17,SW,219,0.0,0.0,87,0.00,CLR,,0.00,WeatherDisplay:10.37,2013-04-07 08:58:00,
2013-04-07 04:03:00,45.2,41.6,30.17,SW,219,0.0,0.0,87,0.00,CLR,,0.00,WeatherDisplay:10.37,2013-04-07 09:03:00,
2013-04-07 04:08:00,45.2,41.6,30.17,SW,219,0.0,0.0,87,0.00,CLR,,0.00,WeatherDisplay:10.37,2013-04-07 09:08:00,
2013-04-07 04:13:00,45.2,41.6,30.18,SW,219,0.0,0.0,87,0.00,CLR,,0.00,WeatherDisplay:10.37,2013-04-07 09:13:00,
2013-04-07 04:18:00,45.2,41.6,30.18,SW,219,0.0,0.0,87,0.00,CLR,,0.00,WeatherDisplay:10.37,2013-04-07 09:18:00,
2013-04-07 04:23:00,45.1,41.8,30.18,SW,219,0.0,0.0,88,0.00,CLR,,0.00,WeatherDisplay:10.37,2013-04-07 09:23:00,
2013-04-07 04:29:00,45.2,41.9,30.17,SW,219,0.0,0.0,88,0.00,CLR,,0.00,WeatherDisplay:10.37,2013-04-07 09:29:00,
2013-04-07 04:34:00,45.2,41.9,30.18,SW,219,1.0,0.0,88,0.00,CLR,,0.00,WeatherDisplay:10.37,2013-04-07 09:34:00,
2013-04-07 04:39:00,45.2,41.9,30.19,SW,219,1.1,0.0,88,0.00,CLR,,0.00,WeatherDisplay:10.37,2013-04-07 09:39:00,
2013-04-07 04:44:00,45.4,42.3,30.19,SW,219,1.1,0.0,89,0.00,CLR,,0.00,WeatherDisplay:10.37,2013-04-07 09:44:00,
2013-04-07 04:49:00,45.7,42.3,30.19,SW,219,0.0,0.0,88,0.00,CLR,,0.00,WeatherDisplay:10.37,2013-04-07 09:49:00,
2013-04-07 04:54:00,45.8,42.4,30.19,SW,219,0.0,0.0,88,0.00,CLR,,0.00,WeatherDisplay:10.37,2013-04-07 09:54:00,
2013-04-07 04:59:00,46.0,42.6,30.19,SW,219,0.0,0.0,88,0.00,CLR,,0.00,WeatherDisplay:10.37,2013-04-07 09:59:00,
2013-04-07 05:04:00,46.0,42.6,30.19,SW,219,0.0,0.0,88,0.00,CLR,,0.00,WeatherDisplay:10.37,2013-04-07 10:04:00,
2013-04-07 05:09:00,46.1,42.4,30.19,SW,219,0.0,0.0,87,0.00,CLR,,0.00,WeatherDisplay:10.37,2013-04-07 10:09:00,
2013-04-07 05:14:00,46.1,42.4,30.19,SW,219,0.0,0.0,87,0.00,CLR,,0.00,WeatherDisplay:10.37,2013-04-07 10:14:00,
2013-04-07 05:20:00,46.1,42.4,30.19,SW,219,0.0,0.0,87,0.00,CLR,,0.00,WeatherDisplay:10.37,2013-04-07 10:20:00,
2013-04-07 05:25:00,46.1,42.4,30.19,SW,219,0.0,0.0,87,0.00,CLR,,0.00,WeatherDisplay:10.37,2013-04-07 10:25:00,
2013-04-07 05:30:00,46.1,42.4,30.20,SW,219,0.0,0.0,87,0.00,CLR,,0.00,WeatherDisplay:10.37,2013-04-07 10:30:00,
2013-04-07 05:35:00,46.2,42.5,30.20,SW,219,0.0,0.0,87,0.00,CLR,,0.00,WeatherDisplay:10.37,2013-04-07 10:35:00,
2013-04-07 05:40:00,46.1,42.4,30.20,SW,219,0.0,0.0,87,0.00,CLR,,0.00,WeatherDisplay:10.37,2013-04-07 10:40:00,
2013-04-07 05:45:00,46.1,42.4,30.20,SW,219,0.0,0.0,87,0.00,CLR,,0.00,WeatherDisplay:10.37,2013-04-07 10:45:00,
2013-04-07 05:50:00,46.1,42.4,30.20,SW,219,0.0,0.0,87,0.00,CLR,,0.00,WeatherDisplay:10.37,2013-04-07 10:50:00,
2013-04-07 05:55:00,46.1,42.4,30.20,SW,219,0.0,0.0,87,0.00,CLR,,0.00,WeatherDisplay:10.37,2013-04-07 10:55:00,
2013-04-07 06:00:00,46.0,42.3,30.21,SW,219,0.0,0.0,87,0.00,CLR,,0.00,WeatherDisplay:10.37,2013-04-07 11:00:00,
2013-04-07 06:05:00,45.8,42.4,30.21,SW,219,0.0,0.0,88,0.00,CLR,,0.00,WeatherDisplay:10.37,2013-04-07 11:05:00,
2013-04-07 06:10:00,45.8,42.4,30.21,SW,219,0.0,0.0,88,0.00,CLR,,0.00,WeatherDisplay:10.37,2013-04-07 11:10:00,
2013-04-07 06:15:00,45.7,42.3,30.22,SW,219,0.0,0.0,88,0.00,CLR,,0.00,WeatherDisplay:10.37,2013-04-07 11:15:00,
2013-04-07 06:20:00,45.7,42.3,30.22,SW,219,0.0,0.0,88,0.00,CLR,,0.00,WeatherDisplay:10.37,2013-04-07 11:20:00,
2013-04-07 06:25:00,45.5,42.2,30.22,SW,219,0.0,0.0,88,0.00,CLR,,0.00,WeatherDisplay:10.37,2013-04-07 11:25:00,
2013-04-07 06:30:00,45.4,42.1,30.22,SW,219,0.0,0.0,88,0.00,CLR,,0.00,WeatherDisplay:10.37,2013-04-07 11:30:00,
2013-04-07 06:35:00,45.4,42.1,30.22,SW,219,0.0,0.0,88,0.00,CLR,,0.00,WeatherDisplay:10.37,2013-04-07 11:35:00,
2013-04-07 06:40:00,45.4,42.3,30.22,SW,219,0.0,0.0,89,0.00,CLR,,0.00,WeatherDisplay:10.37,2013-04-07 11:40:00,
2013-04-07 06:45:00,45.4,42.3,30.22,SW,219,0.0,0.0,89,0.00,CLR,,0.00,WeatherDisplay:10.37,2013-04-07 11:45:00,
2013-04-07 06:50:00,45.4,42.3,30.22,SW,219,0.0,0.0,89,0.00,CLR,,0.00,WeatherDisplay:10.37,2013-04-07 11:50:00,
2013-04-07 06:55:00,45.4,42.3,30.23,SW,219,0.0,0.0,89,0.00,CLR,,0.00,WeatherDisplay:10.37,2013-04-07 11:55:00,
2013-04-07 07:00:00,45.4,42.3,30.23,SW,219,0.0,0.0,89,0.00,CLR,,0.00,WeatherDisplay:10.37,2013-04-07 12:00:00,
2013-04-07 07:05:00,45.4,42.3,30.24,SW,219,0.0,0.0,89,0.00,CLR,,0.00,WeatherDisplay:10.37,2013-04-07 12:05:00,
2013-04-07 07:10:00,45.4,42.3,30.24,SW,219,0.0,0.0,89,0.00,CLR,,0.00,WeatherDisplay:10.37,2013-04-07 12:10:00,
2013-04-07 07:15:00,45.5,42.4,30.24,SW,219,0.0,0.0,89,0.00,CLR,,0.00,WeatherDisplay:10.37,2013-04-07 12:15:00,
2013-04-07 07:20:00,45.8,43.0,30.24,SW,219,0.0,0.0,90,0.00,CLR,,0.00,WeatherDisplay:10.37,2013-04-07 12:20:00,
2013-04-07 07:26:00,46.2,43.4,30.24,SW,219,0.0,0.0,90,0.00,CLR,,0.00,WeatherDisplay:10.37,2013-04-07 12:26:00,
2013-04-07 07:32:00,47.0,43.9,30.24,SW,219,0.0,0.0,89,0.00,CLR,,0.00,WeatherDisplay:10.37,2013-04-07 12:32:00,
2013-04-07 07:37:00,47.4,44.3,30.24,SW,219,0.0,0.0,89,0.00,CLR,,0.00,WeatherDisplay:10.37,2013-04-07 12:37:00,
2013-04-07 07:42:00,48.0,44.9,30.24,SW,219,0.0,0.0,89,0.00,CLR,,0.00,WeatherDisplay:10.37,2013-04-07 12:42:00,
2013-04-07 07:47:00,49.1,45.4,30.24,SW,219,0.0,0.0,87,0.00,CLR,,0.00,WeatherDisplay:10.37,2013-04-07 12:47:00,
2013-04-07 07:52:00,49.9,45.6,30.24,SW,219,0.0,0.0,85,0.00,CLR,,0.00,WeatherDisplay:10.37,2013-04-07 12:52:00,
2013-04-07 07:57:00,50.5,45.5,30.24,SW,219,0.0,0.0,83,0.00,CLR,,0.00,WeatherDisplay:10.37,2013-04-07 12:57:00,
2013-04-07 08:02:00,51.3,46.0,30.24,SW,219,0.0,0.0,82,0.00,CLR,,0.00,WeatherDisplay:10.37,2013-04-07 13:02:00,
2013-04-07 08:08:00,52.3,46.3,30.24,SW,219,0.0,0.0,80,0.00,CLR,,0.00,WeatherDisplay:10.37,2013-04-07 13:08:00,
2013-04-07 08:13:00,53.2,45.8,30.24,SW,219,0.0,0.0,76,0.00,CLR,,0.00,WeatherDisplay:10.37,2013-04-07 13:13:00,
2013-04-07 08:18:00,54.2,46.4,30.25,SW,219,0.0,0.0,75,0.00,CLR,,0.00,WeatherDisplay:10.37,2013-04-07 13:18:00,
2013-04-07 08:23:00,55.1,46.6,30.24,SW,219,0.0,0.0,73,0.00,CLR,,0.00,WeatherDisplay:10.37,2013-04-07 13:23:00,
2013-04-07 08:28:00,55.9,47.0,30.25,SW,219,0.0,0.0,72,0.00,CLR,,0.00,WeatherDisplay:10.37,2013-04-07 13:28:00,
2013-04-07 08:33:00,56.7,47.4,30.25,SW,219,0.0,0.0,71,0.00,CLR,,0.00,WeatherDisplay:10.37,2013-04-07 13:33:00,
2013-04-07 08:38:00,57.6,47.5,30.24,SW,219,0.0,0.0,69,0.00,CLR,,0.00,WeatherDisplay:10.37,2013-04-07 13:38:00,
2013-04-07 08:43:00,58.7,47.8,30.24,SW,219,0.0,0.0,67,0.00,CLR,,0.00,WeatherDisplay:10.37,2013-04-07 13:43:00,
2013-04-07 08:48:00,59.6,48.2,30.24,SW,219,0.0,0.0,66,0.00,CLR,,0.00,WeatherDisplay:10.37,2013-04-07 13:48:00,
2013-04-07 08:53:00,59.9,46.0,30.24,SW,219,0.0,0.0,60,0.00,CLR,,0.00,WeatherDisplay:10.37,2013-04-07 13:53:00,
2013-04-07 08:58:00,60.4,46.4,30.24,SW,219,0.0,0.0,60,0.00,CLR,,0.00,WeatherDisplay:10.37,2013-04-07 13:58:00,
2013-04-07 09:03:00,60.9,46.5,30.24,SW,214,1.1,1.1,59,0.00,CLR,,0.00,WeatherDisplay:10.37,2013-04-07 14:03:00,
2013-04-07 09:08:00,61.2,46.3,30.25,SW,214,0.0,0.0,58,0.00,CLR,,0.00,WeatherDisplay:10.37,2013-04-07 14:08:00,
2013-04-07 09:13:00,61.3,45.9,30.25,SW,214,0.0,0.0,57,0.00,CLR,,0.00,WeatherDisplay:10.37,2013-04-07 14:13:00,
2013-04-07 09:18:00,61.5,46.1,30.25,SW,215,1.1,1.1,57,0.00,CLR,,0.00,WeatherDisplay:10.37,2013-04-07 14:18:00,
2013-04-07 09:23:00,61.8,46.4,30.25,SW,215,0.0,0.0,57,0.00,CLR,,0.00,WeatherDisplay:10.37,2013-04-07 14:23:00,
2013-04-07 09:29:00,62.3,47.3,30.25,SW,217,1.1,0.0,58,0.00,CLR,,0.00,WeatherDisplay:10.37,2013-04-07 14:29:00,
2013-04-07 09:34:00,62.4,47.0,30.25,SW,224,1.1,1.1,57,0.00,CLR,,0.00,WeatherDisplay:10.37,2013-04-07 14:34:00,
2013-04-07 09:39:00,62.6,47.6,30.25,South,190,0.0,0.0,58,0.00,CLR,,0.00,WeatherDisplay:10.37,2013-04-07 14:39:00,
2013-04-07 09:44:00,62.7,46.8,30.25,SSW,196,0.0,0.0,56,0.00,CLR,,0.00,WeatherDisplay:10.37,2013-04-07 14:44:00,
2013-04-07 09:49:00,63.2,47.2,30.25,SSW,200,0.0,0.2,56,0.00,CLR,,0.00,WeatherDisplay:10.37,2013-04-07 14:49:00,
2013-04-07 09:54:00,63.7,47.7,30.25,WSW,240,2.3,2.3,56,0.00,CLR,,0.00,WeatherDisplay:10.37,2013-04-07 14:54:00,
2013-04-07 09:59:00,63.9,46.9,30.25,SW,219,4.6,4.6,54,0.00,CLR,,0.00,WeatherDisplay:10.37,2013-04-07 14:59:00,
2013-04-07 10:04:00,63.9,46.4,30.25,South,183,3.5,3.5,53,0.00,CLR,,0.00,WeatherDisplay:10.37,2013-04-07 15:04:00,
2013-04-07 10:09:00,64.2,47.7,30.25,South,174,1.1,0.0,55,0.00,CLR,,0.00,WeatherDisplay:10.37,2013-04-07 15:09:00,
2013-04-07 10:14:00,65.0,46.9,30.25,SSE,161,2.3,2.3,52,0.00,CLR,,0.00,WeatherDisplay:10.37,2013-04-07 15:14:00,
2013-04-07 10:19:00,65.6,47.0,30.24,SW,229,2.3,2.3,51,0.00,CLR,,0.00,WeatherDisplay:10.37,2013-04-07 15:19:00,
2013-04-07 10:24:00,66.3,48.7,30.24,WSW,241,1.1,0.0,53,0.00,CLR,,0.00,WeatherDisplay:10.37,2013-04-07 15:24:00,
2013-04-07 10:30:00,66.8,48.6,30.24,WSW,247,0.0,4.0,52,0.00,CLR,,0.00,WeatherDisplay:10.37,2013-04-07 15:30:00,
2013-04-07 10:35:00,66.8,47.6,30.24,WSW,255,0.0,3.0,50,0.00,CLR,,0.00,WeatherDisplay:10.37,2013-04-07 15:35:00,
2013-04-07 10:40:00,67.1,46.7,30.24,WSW,254,3.5,3.5,48,0.00,CLR,,0.00,WeatherDisplay:10.37,2013-04-07 15:40:00,
2013-04-07 10:45:00,67.3,46.4,30.24,SSE,159,3.5,3.5,47,0.00,CLR,,0.00,WeatherDisplay:10.37,2013-04-07 15:45:00,
2013-04-07 10:50:00,67.8,46.8,30.24,WSW,254,3.5,3.5,47,0.00,CLR,,0.00,WeatherDisplay:10.37,2013-04-07 15:50:00,
2013-04-07 10:55:00,68.1,48.8,30.24,WNW,288,1.0,1.0,50,0.00,CLR,,0.00,WeatherDisplay:10.37,2013-04-07 15:55:00,
2013-04-07 11:00:00,68.4,47.4,30.23,West,263,3.5,3.5,47,0.00,CLR,,0.00,WeatherDisplay:10.37,2013-04-07 16:00:00,
2013-04-07 11:05:00,68.6,46.4,30.24,West,281,4.6,4.6,45,0.00,CLR,,0.00,WeatherDisplay:10.37,2013-04-07 16:05:00,
2013-04-07 11:10:00,68.8,46.0,30.23,WSW,246,3.5,3.5,44,0.00,CLR,,0.00,WeatherDisplay:10.37,2013-04-07 16:10:00,
2013-04-07 11:15:00,68.9,45.5,30.23,South,170,3.5,3.5,43,0.00,CLR,,0.00,WeatherDisplay:10.37,2013-04-07 16:15:00,
2013-04-07 11:20:00,69.1,46.9,30.23,West,281,3.0,3.0,45,0.00,CLR,,0.00,WeatherDisplay:10.37,2013-04-07 16:20:00,
2013-04-07 11:26:00,69.4,46.5,30.23,WSW,253,1.1,1.1,44,0.00,CLR,,0.00,WeatherDisplay:10.37,2013-04-07 16:26:00,
2013-04-07 11:31:00,69.9,46.4,30.22,SSE,147,2.3,2.3,43,0.00,CLR,,0.00,WeatherDisplay:10.37,2013-04-07 16:31:00,
2013-04-07 11:36:00,69.9,47.0,30.22,West,273,3.5,3.5,44,0.00,CLR,,0.00,WeatherDisplay:10.37,2013-04-07 16:36:00,
2013-04-07 11:41:00,70.1,47.2,30.22,West,271,1.1,1.1,44,0.00,CLR,,0.00,WeatherDisplay:10.37,2013-04-07 16:41:00,
2013-04-07 11:47:00,70.6,47.0,30.22,SSW,203,1.0,1.0,43,0.00,CLR,,0.00,WeatherDisplay:10.37,2013-04-07 16:47:00,
2013-04-07 11:52:00,70.9,46.7,30.22,NW,308,3.5,3.5,42,0.00,CLR,,0.00,WeatherDisplay:10.37,2013-04-07 16:52:00,
2013-04-07 11:57:00,70.8,45.3,30.21,SSW,196,5.8,5.8,40,0.00,CLR,,0.00,WeatherDisplay:10.37,2013-04-07 16:57:00,
2013-04-07 12:02:00,70.6,47.0,30.21,WSW,255,4.6,4.6,43,0.00,CLR,,0.00,WeatherDisplay:10.37,2013-04-07 17:02:00,
2013-04-07 12:07:00,70.8,47.8,30.21,SW,225,3.5,3.5,44,0.00,CLR,,0.00,WeatherDisplay:10.37,2013-04-07 17:07:00,
2013-04-07 12:12:00,71.8,48.7,30.20,SW,215,0.0,0.0,44,0.00,CLR,,0.00,WeatherDisplay:10.37,2013-04-07 17:12:00,
2013-04-07 12:17:00,72.7,49.5,30.20,WSW,240,3.5,3.5,44,0.00,CLR,,0.00,WeatherDisplay:10.37,2013-04-07 17:17:00,
2013-04-07 12:22:00,72.7,47.6,30.20,South,182,4.0,4.0,41,0.00,CLR,,0.00,WeatherDisplay:10.37,2013-04-07 17:22:00,
2013-04-07 12:27:00,72.1,47.1,30.20,WSW,246,5.8,5.8,41,0.00,CLR,,0.00,WeatherDisplay:10.37,2013-04-07 17:27:00,
2013-04-07 12:32:00,71.8,46.2,30.19,SSE,165,3.5,3.5,40,0.00,CLR,,0.00,WeatherDisplay:10.37,2013-04-07 17:32:00,
2013-04-07 12:37:00,71.8,46.2,30.19,SW,228,3.5,0.0,40,0.00,CLR,,0.00,WeatherDisplay:10.37,2013-04-07 17:37:00,
2013-04-07 12:42:00,72.1,46.4,30.19,WSW,249,4.6,4.6,40,0.00,CLR,,0.00,WeatherDisplay:10.37,2013-04-07 17:42:00,
2013-04-07 12:47:00,72.5,46.8,30.18,South,185,6.9,6.9,40,0.00,CLR,,0.00,WeatherDisplay:10.37,2013-04-07 17:47:00,
2013-04-07 12:52:00,72.7,47.6,30.18,WNW,284,4.6,4.6,41,0.00,CLR,,0.00,WeatherDisplay:10.37,2013-04-07 17:52:00,
2013-04-07 12:58:00,72.8,49.0,30.18,West,271,0.0,0.0,43,0.00,CLR,,0.00,WeatherDisplay:10.37,2013-04-07 17:58:00,
2013-04-07 13:03:00,73.0,46.6,30.18,WNW,290,4.6,4.6,39,0.00,CLR,,0.00,WeatherDisplay:10.37,2013-04-07 18:03:00,
2013-04-07 13:08:00,72.5,45.4,30.17,SW,223,5.8,5.8,38,0.00,CLR,,0.00,WeatherDisplay:10.37,2013-04-07 18:08:00,
2013-04-07 13:13:00,72.5,46.8,30.17,South,180,10.4,10.4,40,0.00,CLR,,0.00,WeatherDisplay:10.37,2013-04-07 18:13:00,
2013-04-07 13:18:00,72.5,46.1,30.17,West,259,4.0,4.0,39,0.00,CLR,,0.00,WeatherDisplay:10.37,2013-04-07 18:18:00,
2013-04-07 13:23:00,72.5,46.8,30.17,SSE,167,4.0,4.0,40,0.00,CLR,,0.00,WeatherDisplay:10.37,2013-04-07 18:23:00,
2013-04-07 13:28:00,72.5,45.4,30.17,West,259,6.9,6.9,38,0.00,CLR,,0.00,WeatherDisplay:10.37,2013-04-07 18:28:00,
2013-04-07 13:33:00,72.5,47.5,30.17,WNW,284,4.6,4.6,41,0.00,CLR,,0.00,WeatherDisplay:10.37,2013-04-07 18:33:00,
2013-04-07 13:38:00,72.3,46.6,30.17,SW,232,5.8,5.8,40,0.00,CLR,,0.00,WeatherDisplay:10.37,2013-04-07 18:38:00,
2013-04-07 13:43:00,72.7,47.0,30.17,WSW,237,3.5,3.5,40,0.00,CLR,,0.00,WeatherDisplay:10.37,2013-04-07 18:43:00,
2013-04-07 13:48:00,73.2,46.1,30.16,WNW,284,2.3,2.3,38,0.00,CLR,,0.00,WeatherDisplay:10.37,2013-04-07 18:48:00,
2013-04-07 13:53:00,73.2,46.8,30.16,West,271,4.6,4.6,39,0.00,CLR,,0.00,WeatherDisplay:10.37,2013-04-07 18:53:00,
2013-04-07 13:58:00,72.8,45.7,30.16,West,275,3.5,3.5,38,0.00,CLR,,0.00,WeatherDisplay:10.37,2013-04-07 18:58:00,
2013-04-07 14:03:00,72.5,46.1,30.16,WNW,298,3.5,3.5,39,0.00,CLR,,0.00,WeatherDisplay:10.37,2013-04-07 19:03:00,
2013-04-07 14:08:00,72.1,45.1,30.16,West,265,4.6,4.6,38,0.00,CLR,,0.00,WeatherDisplay:10.37,2013-04-07 19:08:00,
2013-04-07 14:13:00,71.8,46.8,30.16,South,176,3.5,3.5,41,0.00,CLR,,0.00,WeatherDisplay:10.37,2013-04-07 19:13:00,
2013-04-07 14:18:00,71.8,46.8,30.16,West,280,3.5,3.5,41,0.00,CLR,,0.00,WeatherDisplay:10.37,2013-04-07 19:18:00,
2013-04-07 14:23:00,72.0,47.6,30.16,SSW,208,3.5,3.5,42,0.00,CLR,,0.00,WeatherDisplay:10.37,2013-04-07 19:23:00,
2013-04-07 14:28:00,72.7,47.0,30.16,WSW,251,1.1,1.2,40,0.00,CLR,,0.00,WeatherDisplay:10.37,2013-04-07 19:28:00,
2013-04-07 14:34:00,73.5,46.3,30.15,WSW,246,4.6,4.6,38,0.00,CLR,,0.00,WeatherDisplay:10.37,2013-04-07 19:34:00,
2013-04-07 14:39:00,74.2,46.2,30.15,West,279,3.5,3.5,37,0.00,CLR,,0.00,WeatherDisplay:10.37,2013-04-07 19:39:00,
2013-04-07 14:44:00,74.6,47.3,30.15,West,273,1.1,0.0,38,0.00,CLR,,0.00,WeatherDisplay:10.37,2013-04-07 19:44:00,
2013-04-07 14:50:00,74.9,47.6,30.15,WSW,254,1.0,5.0,38,0.00,CLR,,0.00,WeatherDisplay:10.37,2013-04-07 19:50:00,
2013-04-07 14:55:00,75.1,47.8,30.15,South,176,1.1,1.1,38,0.00,CLR,,0.00,WeatherDisplay:10.37,2013-04-07 19:55:00,
2013-04-07 15:00:00,75.1,47.0,30.15,SW,229,3.5,3.5,37,0.00,CLR,,0.00,WeatherDisplay:10.37,2013-04-07 20:00:00,
2013-04-07 15:05:00,74.9,44.6,30.15,West,267,9.2,9.2,34,0.00,CLR,,0.00,WeatherDisplay:10.37,2013-04-07 20:05:00,
2013-04-07 15:10:00,74.9,46.9,30.14,SSW,213,3.5,3.5,37,0.00,CLR,,0.00,WeatherDisplay:10.37,2013-04-07 20:10:00,
2013-04-07 15:15:00,74.9,46.1,30.14,WNW,292,4.0,4.0,36,0.00,CLR,,0.00,WeatherDisplay:10.37,2013-04-07 20:15:00,
2013-04-07 15:20:00,75.1,47.0,30.14,West,260,4.6,4.6,37,0.00,CLR,,0.00,WeatherDisplay:10.37,2013-04-07 20:20:00,
2013-04-07 15:25:00,75.1,46.3,30.14,WSW,247,3.0,3.0,36,0.00,CLR,,0.00,WeatherDisplay:10.37,2013-04-07 20:25:00,
2013-04-07 15:30:00,75.1,45.6,30.13,West,271,3.5,3.5,35,0.00,CLR,,0.00,WeatherDisplay:10.37,2013-04-07 20:30:00,
2013-04-07 15:35:00,75.1,46.3,30.12,West,267,4.6,4.6,36,0.00,CLR,,0.00,WeatherDisplay:10.37,2013-04-07 20:35:00,
2013-04-07 15:40:00,75.1,44.8,30.12,West,269,2.0,2.0,34,0.00,CLR,,0.00,WeatherDisplay:10.37,2013-04-07 20:40:00,
2013-04-07 15:45:00,75.3,45.7,30.12,West,271,5.0,5.0,35,0.00,CLR,,0.00,WeatherDisplay:10.37,2013-04-07 20:45:00,
2013-04-07 15:50:00,74.7,45.2,30.12,WSW,251,3.5,3.5,35,0.00,CLR,,0.00,WeatherDisplay:10.37,2013-04-07 20:50:00,
2013-04-07 15:55:00,73.7,45.8,30.12,WSW,249,4.6,4.6,37,0.00,CLR,,0.00,WeatherDisplay:10.37,2013-04-07 20:55:00,
2013-04-07 16:01:00,73.7,45.8,30.13,WSW,242,3.5,3.5,37,0.00,CLR,,0.00,WeatherDisplay:10.37,2013-04-07 21:01:00,
2013-04-07 16:06:00,73.9,44.5,30.12,West,281,3.5,3.5,35,0.00,CLR,,0.00,WeatherDisplay:10.37,2013-04-07 21:06:00,
2013-04-07 16:11:00,73.9,46.0,30.12,WSW,257,3.5,3.5,37,0.00,CLR,,0.00,WeatherDisplay:10.37,2013-04-07 21:11:00,
2013-04-07 16:16:00,73.5,47.0,30.12,WSW,238,1.1,1.1,39,0.00,CLR,,0.00,WeatherDisplay:10.37,2013-04-07 21:16:00,
2013-04-07 16:21:00,73.3,46.2,30.12,SSE,159,5.8,5.8,38,0.00,CLR,,0.00,WeatherDisplay:10.37,2013-04-07 21:21:00,
2013-04-07 16:27:00,73.5,47.0,30.12,WSW,253,3.5,3.5,39,0.00,CLR,,0.00,WeatherDisplay:10.37,2013-04-07 21:27:00,
2013-04-07 16:32:00,73.7,45.8,30.12,WNW,302,4.0,4.0,37,0.00,CLR,,0.00,WeatherDisplay:10.37,2013-04-07 21:32:00,
2013-04-07 16:37:00,73.9,46.7,30.12,SSW,198,1.1,0.0,38,0.00,CLR,,0.00,WeatherDisplay:10.37,2013-04-07 21:37:00,
2013-04-07 16:42:00,73.9,46.7,30.12,WSW,249,4.6,4.6,38,0.00,CLR,,0.00,WeatherDisplay:10.37,2013-04-07 21:42:00,
2013-04-07 16:47:00,73.9,46.0,30.12,SSW,210,1.1,1.1,37,0.00,CLR,,0.00,WeatherDisplay:10.37,2013-04-07 21:47:00,
2013-04-07 16:52:00,74.2,45.5,30.12,SW,218,1.1,1.1,36,0.00,CLR,,0.00,WeatherDisplay:10.37,2013-04-07 21:52:00,
2013-04-07 16:57:00,74.0,45.3,30.12,West,265,3.5,3.5,36,0.00,CLR,,0.00,WeatherDisplay:10.37,2013-04-07 21:57:00,
2013-04-07 17:02:00,73.7,46.5,30.12,South,179,0.0,0.0,38,0.00,CLR,,0.00,WeatherDisplay:10.37,2013-04-07 22:02:00,
2013-04-07 17:08:00,74.0,46.1,30.12,South,186,1.1,1.1,37,0.00,CLR,,0.00,WeatherDisplay:10.37,2013-04-07 22:08:00,
2013-04-07 17:13:00,74.2,45.5,30.12,South,191,4.6,4.6,36,0.00,CLR,,0.00,WeatherDisplay:10.37,2013-04-07 22:13:00,
2013-04-07 17:18:00,74.2,46.2,30.12,SW,228,3.5,3.5,37,0.00,CLR,,0.00,WeatherDisplay:10.37,2013-04-07 22:18:00,
2013-04-07 17:23:00,73.7,45.8,30.12,SW,228,3.5,3.5,37,0.00,CLR,,0.00,WeatherDisplay:10.37,2013-04-07 22:23:00,
2013-04-07 17:28:00,73.3,46.8,30.12,WSW,243,0.0,0.0,39,0.00,CLR,,0.00,WeatherDisplay:10.37,2013-04-07 22:28:00,
2013-04-07 17:33:00,73.2,46.8,30.12,SW,232,3.5,3.5,39,0.00,CLR,,0.00,WeatherDisplay:10.37,2013-04-07 22:33:00,
2013-04-07 17:38:00,73.2,46.8,30.12,SW,232,0.0,0.0,39,0.00,CLR,,0.00,WeatherDisplay:10.37,2013-04-07 22:38:00,
2013-04-07 17:43:00,73.2,46.1,30.12,SW,236,3.5,3.5,38,0.00,CLR,,0.00,WeatherDisplay:10.37,2013-04-07 22:43:00,
2013-04-07 17:48:00,73.2,46.1,30.12,SSW,207,3.5,3.5,38,0.00,CLR,,0.00,WeatherDisplay:10.37,2013-04-07 22:48:00,
2013-04-07 17:53:00,73.2,47.4,30.12,SSE,168,0.0,0.0,40,0.00,CLR,,0.00,WeatherDisplay:10.37,2013-04-07 22:53:00,
2013-04-07 17:59:00,73.0,47.2,30.12,South,170,0.0,0.0,40,0.00,CLR,,0.00,WeatherDisplay:10.37,2013-04-07 22:59:00,
2013-04-07 18:04:00,72.7,46.3,30.12,South,188,3.5,3.5,39,0.00,CLR,,0.00,WeatherDisplay:10.37,2013-04-07 23:04:00,
2013-04-07 18:09:00,72.3,46.6,30.12,SSW,195,0.0,0.0,40,0.00,CLR,,0.00,WeatherDisplay:10.37,2013-04-07 23:09:00,
2013-04-07 18:14:00,72.0,47.0,30.12,South,190,0.0,0.0,41,0.00,CLR,,0.00,WeatherDisplay:10.37,2013-04-07 23:14:00,
2013-04-07 18:19:00,71.5,46.6,30.12,South,190,0.0,0.0,41,0.00,CLR,,0.00,WeatherDisplay:10.37,2013-04-07 23:19:00,
2013-04-07 18:24:00,71.3,47.0,30.11,South,190,0.0,0.0,42,0.00,CLR,,0.00,WeatherDisplay:10.37,2013-04-07 23:24:00,
2013-04-07 18:29:00,70.9,47.3,30.11,South,190,0.0,0.0,43,0.00,CLR,,0.00,WeatherDisplay:10.37,2013-04-07 23:29:00,
2013-04-07 18:34:00,70.6,47.6,30.11,South,190,0.0,0.0,44,0.00,CLR,,0.00,WeatherDisplay:10.37,2013-04-07 23:34:00,
2013-04-07 18:39:00,70.3,47.9,30.11,South,190,0.0,0.0,45,0.00,CLR,,0.00,WeatherDisplay:10.37,2013-04-07 23:39:00,
2013-04-07 18:44:00,69.9,48.7,30.11,South,190,0.0,0.0,47,0.00,CLR,,0.00,WeatherDisplay:10.37,2013-04-07 23:44:00,
2013-04-07 18:50:00,69.4,49.4,30.11,South,190,0.0,0.0,49,0.00,CLR,,0.00,WeatherDisplay:10.37,2013-04-07 23:50:00,
2013-04-07 18:55:00,68.9,49.5,30.11,South,190,0.0,0.0,50,0.00,CLR,,0.00,WeatherDisplay:10.37,2013-04-07 23:55:00,
2013-04-07 19:00:00,68.6,49.2,30.12,South,190,0.0,0.0,50,0.00,CLR,,0.00,WeatherDisplay:10.37,2013-04-08 00:00:00,
2013-04-07 19:05:00,68.1,48.8,30.11,South,190,0.0,0.0,50,0.00,CLR,,0.00,WeatherDisplay:10.37,2013-04-08 00:05:00,
2013-04-07 19:10:00,67.8,49.0,30.11,South,190,0.0,0.0,51,0.00,CLR,,0.00,WeatherDisplay:10.37,2013-04-08 00:10:00,
2013-04-07 19:15:00,67.3,50.1,30.11,South,190,0.0,0.0,54,0.00,CLR,,0.00,WeatherDisplay:10.37,2013-04-08 00:15:00,
2013-04-07 19:20:00,66.8,50.1,30.11,South,190,0.0,0.0,55,0.00,CLR,,0.00,WeatherDisplay:10.37,2013-04-08 00:20:00,
2013-04-07 19:25:00,66.1,49.5,30.11,South,190,0.0,0.0,55,0.00,CLR,,0.00,WeatherDisplay:10.37,2013-04-08 00:25:00,
2013-04-07 19:30:00,65.6,49.5,30.11,South,190,0.0,0.0,56,0.00,CLR,,0.00,WeatherDisplay:10.37,2013-04-08 00:30:00,
2013-04-07 19:35:00,65.2,49.6,30.11,South,190,0.0,0.0,57,0.00,CLR,,0.00,WeatherDisplay:10.37,2013-04-08 00:35:00,
2013-04-07 19:40:00,64.8,49.2,30.11,South,190,0.0,0.0,57,0.00,CLR,,0.00,WeatherDisplay:10.37,2013-04-08 00:40:00,
2013-04-07 19:45:00,64.5,49.4,30.11,South,190,0.0,0.0,58,0.00,CLR,,0.00,WeatherDisplay:10.37,2013-04-08 00:45:00,
2013-04-07 19:50:00,64.0,49.8,30.11,South,190,0.0,0.0,60,0.00,CLR,,0.00,WeatherDisplay:10.37,2013-04-08 00:50:00,
2013-04-07 19:55:00,63.5,49.4,30.11,South,190,0.0,0.0,60,0.00,CLR,,0.00,WeatherDisplay:10.37,2013-04-08 00:55:00,
2013-04-07 20:00:00,63.2,49.1,30.11,South,190,0.0,0.0,60,0.00,CLR,,0.00,WeatherDisplay:10.37,2013-04-08 01:00:00,
2013-04-07 20:05:00,62.7,49.1,30.11,South,190,0.0,0.0,61,0.00,CLR,,0.00,WeatherDisplay:10.37,2013-04-08 01:05:00,
2013-04-07 20:10:00,62.4,49.2,30.10,South,190,0.0,0.0,62,0.00,CLR,,0.00,WeatherDisplay:10.37,2013-04-08 01:10:00,
2013-04-07 20:15:00,62.1,49.4,30.10,South,190,0.0,0.0,63,0.00,CLR,,0.00,WeatherDisplay:10.37,2013-04-08 01:15:00,
2013-04-07 20:20:00,61.8,49.5,30.10,South,190,0.0,0.0,64,0.00,CLR,,0.00,WeatherDisplay:10.37,2013-04-08 01:20:00,
2013-04-07 20:25:00,61.3,49.4,30.11,South,190,0.0,0.0,65,0.00,CLR,,0.00,WeatherDisplay:10.37,2013-04-08 01:25:00,
2013-04-07 20:30:00,61.0,49.6,30.10,South,190,0.0,0.0,66,0.00,CLR,,0.00,WeatherDisplay:10.37,2013-04-08 01:30:00,
2013-04-07 20:35:00,60.7,48.9,30.10,South,190,0.0,0.0,65,0.00,CLR,,0.00,WeatherDisplay:10.37,2013-04-08 01:35:00,
2013-04-07 20:40:00,60.4,49.4,30.11,South,190,0.0,0.0,67,0.00,CLR,,0.00,WeatherDisplay:10.37,2013-04-08 01:40:00,
2013-04-07 20:45:00,60.1,49.5,30.11,South,190,0.0,0.0,68,0.00,CLR,,0.00,WeatherDisplay:10.37,2013-04-08 01:45:00,
2013-04-07 20:50:00,59.8,49.2,30.11,South,190,0.0,0.0,68,0.00,CLR,,0.00,WeatherDisplay:10.37,2013-04-08 01:50:00,
2013-04-07 20:55:00,59.5,48.9,30.11,South,190,0.0,0.0,68,0.00,CLR,,0.00,WeatherDisplay:10.37,2013-04-08 01:55:00,
2013-04-07 21:00:00,59.2,49.0,30.11,South,190,0.0,0.0,69,0.00,CLR,,0.00,WeatherDisplay:10.37,2013-04-08 02:00:00,
2013-04-07 21:06:00,58.9,49.1,30.11,South,190,0.0,0.0,70,0.00,CLR,,0.00,WeatherDisplay:10.37,2013-04-08 02:06:00,
2013-04-07 21:11:00,58.6,48.5,30.11,South,190,0.0,0.0,69,0.00,CLR,,0.00,WeatherDisplay:10.37,2013-04-08 02:11:00,
2013-04-07 21:16:00,58.3,48.6,30.12,South,190,0.0,0.0,70,0.00,CLR,,0.00,WeatherDisplay:10.37,2013-04-08 02:16:00,
2013-04-07 21:21:00,58.0,48.6,30.12,South,190,0.0,0.0,71,0.00,CLR,,0.00,WeatherDisplay:10.37,2013-04-08 02:21:00,
2013-04-07 21:26:00,57.8,48.5,30.12,South,190,0.0,0.0,71,0.00,CLR,,0.00,WeatherDisplay:10.37,2013-04-08 02:26:00,
2013-04-07 21:31:00,57.6,48.6,30.12,South,190,0.0,0.0,72,0.00,CLR,,0.00,WeatherDisplay:10.37,2013-04-08 02:31:00,
2013-04-07 21:36:00,57.3,48.3,30.13,South,190,0.0,0.0,72,0.00,CLR,,0.00,WeatherDisplay:10.37,2013-04-08 02:36:00,
2013-04-07 21:41:00,57.0,48.4,30.13,South,190,0.0,0.0,73,0.00,CLR,,0.00,WeatherDisplay:10.37,2013-04-08 02:41:00,
2013-04-07 21:46:00,56.9,48.3,30.14,South,190,0.0,0.0,73,0.00,CLR,,0.00,WeatherDisplay:10.37,2013-04-08 02:46:00,
2013-04-07 21:52:00,56.6,48.4,30.14,South,190,0.0,0.0,74,0.00,CLR,,0.00,WeatherDisplay:10.37,2013-04-08 02:52:00,
2013-04-07 21:58:00,56.5,48.3,30.14,South,190,0.0,0.0,74,0.00,CLR,,0.00,WeatherDisplay:10.37,2013-04-08 02:58:00,
2013-04-07 22:03:00,56.2,48.4,30.13,South,190,0.0,0.0,75,0.00,CLR,,0.00,WeatherDisplay:10.37,2013-04-08 03:03:00,
2013-04-07 22:09:00,56.2,48.7,30.12,South,190,0.0,0.0,76,0.00,CLR,,0.00,WeatherDisplay:10.37,2013-04-08 03:09:00,
2013-04-07 22:14:00,56.0,48.5,30.13,South,190,0.0,0.0,76,0.00,CLR,,0.00,WeatherDisplay:10.37,2013-04-08 03:14:00,
2013-04-07 22:19:00,55.9,48.4,30.13,South,190,0.0,0.0,76,0.00,CLR,,0.00,WeatherDisplay:10.37,2013-04-08 03:19:00,
2013-04-07 22:24:00,55.7,48.6,30.13,South,190,0.0,0.0,77,0.00,CLR,,0.00,WeatherDisplay:10.37,2013-04-08 03:24:00,
2013-04-07 22:29:00,55.6,48.5,30.13,South,190,0.0,0.0,77,0.00,CLR,,0.00,WeatherDisplay:10.37,2013-04-08 03:29:00,
2013-04-07 22:34:00,55.4,48.3,30.13,South,190,0.0,0.0,77,0.00,CLR,,0.00,WeatherDisplay:10.37,2013-04-08 03:34:00,
2013-04-07 22:39:00,55.4,48.3,30.13,South,190,0.0,0.0,77,0.00,CLR,,0.00,WeatherDisplay:10.37,2013-04-08 03:39:00,
2013-04-07 22:44:00,55.3,48.6,30.13,South,190,0.0,0.0,78,0.00,CLR,,0.00,WeatherDisplay:10.37,2013-04-08 03:44:00,
2013-04-07 22:49:00,55.1,48.7,30.13,South,190,0.0,0.0,79,0.00,CLR,,0.00,WeatherDisplay:10.37,2013-04-08 03:49:00,
2013-04-07 22:54:00,55.1,48.7,30.13,South,190,0.0,0.0,79,0.00,CLR,,0.00,WeatherDisplay:10.37,2013-04-08 03:54:00,
2013-04-07 23:00:00,55.1,49.0,30.13,South,190,0.0,0.0,80,0.00,CLR,,0.00,WeatherDisplay:10.37,2013-04-08 04:00:00,
2013-04-07 23:02:00,55.1,48.7,30.13,South,190,0.0,0.0,79,0.00,CLR,,0.00,WeatherDisplay:10.37,2013-04-08 04:02:00,
2013-04-07 23:05:00,55.1,48.7,30.13,South,190,0.0,0.0,79,0.00,CLR,,0.00,WeatherDisplay:10.37,2013-04-08 04:05:00,
2013-04-07 23:10:00,55.0,48.6,30.13,South,190,0.0,0.0,79,0.00,CLR,,0.00,WeatherDisplay:10.37,2013-04-08 04:10:00,
2013-04-07 23:15:00,55.0,48.9,30.13,South,190,0.0,0.0,80,0.00,CLR,,0.00,WeatherDisplay:10.37,2013-04-08 04:15:00,
2013-04-07 23:20:00,55.0,48.9,30.13,South,190,0.0,0.0,80,0.00,CLR,,0.00,WeatherDisplay:10.37,2013-04-08 04:20:00,
2013-04-07 23:25:00,54.8,48.7,30.13,South,190,0.0,0.0,80,0.00,CLR,,0.00,WeatherDisplay:10.37,2013-04-08 04:25:00,
2013-04-07 23:30:00,54.7,48.6,30.12,South,190,0.0,0.0,80,0.00,CLR,,0.00,WeatherDisplay:10.37,2013-04-08 04:30:00,
2013-04-07 23:35:00,54.5,48.5,30.12,South,190,0.0,0.0,80,0.00,CLR,,0.00,WeatherDisplay:10.37,2013-04-08 04:35:00,
2013-04-07 23:40:00,54.4,48.4,30.12,South,190,0.0,0.0,80,0.00,CLR,,0.00,WeatherDisplay:10.37,2013-04-08 04:40:00,
2013-04-07 23:45:00,54.2,48.2,30.12,South,190,0.0,0.0,80,0.00,CLR,,0.00,WeatherDisplay:10.37,2013-04-08 04:45:00,
2013-04-07 23:50:00,53.9,48.2,30.12,South,190,0.0,0.0,81,0.00,CLR,,0.00,WeatherDisplay:10.37,2013-04-08 04:50:00,
2013-04-07 23:55:00,53.8,48.1,30.12,South,190,0.0,0.0,81,0.00,CLR,,0.00,WeatherDisplay:10.37,2013-04-08 04:55:00,